Weather in Abashiri

Japan     43°58′40″N   144°09′18″E
temp.,
°C
wind,
m/s
gust,
m/s
humid.,
%
clouds,
%
prec.,
mm/h
press.,
hPa
HPBL,
m
16 may, sun
sun1600:00+9s71274100 0.0 1014288
03:00+9s71271100 0.0 1012276
06:00+11s81575100 0.0 1011404
09:00+15s9137156 0.0 1009492
12:00+13s71184100 0.3 1008418
15:00+11s4693100 1.2 1008130
18:00+10sse3695100 1.1 1006155
21:00+10s4696100 2.6 1005131
17 may, mon
mon1700:00+10s3598100 3.3 1003100
03:00+9se2399100 9.6 100187
06:00+9ssw0199100 5.9 99934
09:00+7wnw3499100 10.3 999130
12:00+8wnw3497100 2.5 999147
15:00+7nw4799100 2.6 1001199
18:00+6n2399100 0.0 1004112
21:00+7ssw1199100 0.0 100537
18 may, tue
tue1800:00+6s1197100 0.0 100610
03:00+7s1195100 0.0 100710
06:00+9se1192100 0.0 100950
09:00+13ese117428 0.0 1009378
12:00+14e327036 0.0 1009387
15:00+13e227925 0.0 1009128
18:00+12se227654 0.0 101011
21:00+12ssw44840 0.0 101131
19 may, wed
wed1900:00+11ssw45890 0.0 101155
03:00+10ssw45872 0.0 101262
06:00+13ssw4685100 0.0 1012112
09:00+18s5664100 0.0 1012482
12:00+20sse5651100 0.0 10111074
15:00+19sse6863100 0.0 1010385
18:00+15sse58790 0.0 101192
21:00+12s46830 0.0 101357
20 may, thu
thu2000:00+11sw33800 0.0 101418
03:00+10wsw22860 0.0 101611
06:00+12sw22810 0.0 101778
09:00+17se24660 0.0 1016359
12:00+20se56560 0.0 1015558
15:00+21sse685975 0.0 1014516
18:00+16s5877100 0.0 1015100
21:00+13s5879100 0.0 1015105